Orbital Elements at Epoch 2459000.5 (2020-May-31.0) TDB
Reference: JPL 12 (heliocentric ecliptic J2000)
Element | Value | Uncertainty (1-sigma) | Units |
e | .194636080821591 | 6.4833e-08 | |
a | 2.208416791121676 | 1.0386e-08 | au |
q | 1.778579202077159 | 1.4561e-07 | au |
i | 5.402457527744303 | 4.6347e-06 | deg |
node | 136.2994258321331 | 6.1348e-05 | deg |
peri | 241.2835214521901 | 6.2849e-05 | deg |
M | 67.08511925500737 | 1.054e-05 | deg |
tp | 2458777.120310445927 (2019-Oct-20.62031045) | 3.5378e-05 | TDB |
period | 1198.726172547777 3.28 | 8.4565e-06 2.315e-08 | d yr |
n | .3003187952715296 | 2.1186e-09 | deg/d |
Q | 2.638254380166194 | 1.2408e-08 | au |
|
| | Orbit Determination Parameters
Additional Information
|